Location: Ariel
(45.9570°N, 122.5700°W)
Time: 18:42:36
(UTC-07:00)

Altair - Pass Details

Date: 27 July 2019
Orbit: 1501 x 1683 km, 47.2° (Epoch: 22 August)

Event Time Altitude Azimuth Distance (km) Brightness Sun altitude
Rises 10:49:06 0° 220° (SW) 4,685 10.0 49.5°
Reaches altitude 10° 10:52:17 10° 215° (SW) 3,685 9.6 50.0°
Maximum altitude 11:01:02 49° 144° (SE) 1,861 10.1 51.3°
Drops below altitude 10° 11:09:42 10° 73° (ENE) 3,657 10.0 52.6°
Sets 11:12:50 0° 68° (ENE) 4,647 10.3 53.0°
